CAPE
1597 778 223 291 56 1 0 68 87 73 138 159 197 171 158 27 12 13 101 68 106 99 214 770 1877 2040 1840 2006 2386 2193 2522 2157 2038 2442 2115 1917 1994 1888 1712 1761 1772 1659 1197 922 819 738 640 915 933
952 534 125 540 0 71 74 73 137 161 184 109 94 3 11 116 147 199 80 118 111 205 203 665 2032 2264 1966 1978 2184 2296 2066 1955 1955 1959 1949 1760 1890 1855 577 521 574 492 833 1373 1194 992 1261 1168 1223
136 171 1096 762 1 6 187 149 207 283 204 63 179 110 133 54 167 182 101 89 102 65 213 872 1957 2118 1795 2051 2372 2136 1851 1816 1955 2065 1939 1908 1853 1101 553 1620 1680 1731 1388 1205 1193 934 1024 956 1084
940 1018 1066 0 77 122 319 218 145 163 125 114 44 75 256 293 242 120 46 15 0 8 313 1022 1555 1416 1719 1946 1989 1984 1839 1891 1983 2007 1887 1772 1068 590 994 1662 1568 1266 1483 1303 910 839 809 836 827
339 173 101 0 0 295 329 280 113 79 126 110 100 59 343 301 70 35 13 1 5 78 146 531 1854 1906 1864 2029 1917 2189 2219 2132 2114 1904 1850 1227 922 922 1187 1158 977 1306 1256 1214 1252 1079 1090 1094 1030
0 32 0 1 58 220 279 319 284 241 200 127 57 59 366 131 11 4 0 0 4 76 276 415 1433 1814 1868 1793 1966 2111 1972 1654 1000 1503 1893 1901 1664 1674 1337 1240 1203 1500 1523 1481 1336 1196 1055 1090 1065
124 0 0 1 101 244 400 248 246 230 177 123 127 247 415 133 4 0 0 0 1 67 49 61 608 981 1794 2037 2252 2177 1814 1851 1808 1505 1034 1484 1769 1714 1072 1276 1631 1497 1564 1485 1468 1434 1376 1349 1150
258 26 0 0 52 145 371 392 326 288 216 197 140 201 542 80 3 0 4 1 1 0 22 44 94 337 524 1365 2095 2141 2066 1326 1568 1726 1509 1366 991 1132 1653 1769 1657 1510 1511 1430 1411 1459 1631 1713 1414
102 55 67 101 292 485 382 503 480 330 225 229 195 263 238 60 10 7 7 0 0 1 2 14 44 85 122 108 1257 1506 1351 1341 1406 1408 1525 1390 836 890 848 965 1101 1005 1036 1120 1263 1342 1664 2023 1627
97 28 54 0 261 630 638 459 411 434 318 216 316 362 215 117 28 5 6 7 0 0 0 0 3 39 19 0 57 224 1158 716 547 423 324 393 758 686 1314 1204 1448 1383 1482 1632 1678 2078 2179 2051 977
50 0 0 146 446 593 453 188 373 362 315 297 294 184 354 191 44 1 0 0 0 0 0 0 0 3 2 0 1 72 776 768 680 589 468 506 619 450 562 371 375 643 1124 1055 1105 918 978 1069 1057
0 0 11 164 621 490 437 220 332 299 333 428 428 390 339 263 85 2 0 0 0 0 0 0 0 5 3 0 0 22 443 345 398 568 700 881 573 614 520 718 504 457 500 804 853 762 644 793 689
0 0 44 257 340 434 423 368 248 477 611 537 543 402 245 115 41 30 0 0 0 0 0 0 0 0 0 2 19 6 97 270 339 349 732 368 337 393 726 775 739 733 707 845 924 960 1141 1029 779
0 12 79 160 293 400 510 452 425 579 763 781 705 502 277 198 158 83 48 7 0 0 0 0 0 0 0 7 12 51 103 165 268 879 397 605 506 370 591 915 650 464 658 790 709 751 873 861 795
0 24 56 97 164 358 487 430 455 607 785 908 817 614 476 336 253 194 201 131 10 0 0 0 0 0 0 1 17 22 79 292 622 715 839 1019 753 557 668 633 529 234 291 466 357 246 373 192 290
0 0 40 35 124 217 19 175 551 641 681 843 803 787 719 515 443 388 314 215 112 7 0 0 0 0 0 0 0 0 3 18 48 170 478 775 854 761 739 643 433 620 442 372 134 31 0 8 0
0 0 0 13 31 94 35 148 596 655 684 685 735 682 624 493 376 384 400 264 191 81 7 0 0 0 0 0 0 0 0 9 175 565 954 1211 1230 978 1030 951 827 920 494 275 37 17 0 0 0
0 0 0 1 30 40 27 60 402 513 672 662 598 613 639 569 444 383 403 351 324 103 8 0 0 0 0 0 0 0 116 527 807 924 963 803 734 485 244 273 361 179 555 209 72 16 0 0 0
0 0 0 0 0 16 32 19 165 461 570 542 483 520 486 475 418 347 311 345 221 2 0 0 0 0 19 98 94 35 178 569 897 463 576 280 312 147 13 63 30 90 620 668 489 136 0 0 0
0 0 0 0 0 0 6 15 104 65 164 251 446 497 414 288 307 305 253 161 75 2 0 0 0 0 57 163 413 525 596 722 883 471 318 230 328 309 0 0 0 1 102 546 407 147 33 0 0
0 0 0 0 0 0 1 0 18 8 16 7 325 462 417 291 230 264 270 227 110 18 0 0 0 0 69 356 754 854 963 1044 712 427 223 119 281 252 0 0 0 0 2 280 643 327 142 103 159
0 0 0 0 0 0 0 3 0 0 0 17 15 76 254 338 140 193 248 291 283 225 161 85 107 122 164 438 924 1141 1223 1203 1010 770 398 151 7 45 0 0 0 0 0 53 558 719 313 40 451
0 0 0 0 0 0 0 0 0 0 0 0 6 5 9 50 48 87 197 241 355 409 372 390 340 333 491 631 900 1123 1221 1074 750 674 665 362 8 0 0 5 65 62 55 184 930 1080 1097 762 861
0 0 0 0 0 0 0 0 0 0 0 0 10 3 0 0 5 6 83 103 213 476 476 514 515 517 1149 1111 1083 1210 1307 1364 1419 1399 1442 1118 320 13 42 122 2 198 336 678 1146 1116 1060 965 909
0 0 0 0 0 0 0 0 0 0 0 0 0 7 0 0 0 0 8 26 61 347 560 634 506 615 935 1393 1236 1198 1297 1330 1558 1573 1511 1282 617 697 865 706 763 904 1176 1116 1111 992 688 414 387
0 0 0 0 0 0 0 0 0 0 0 0 0 0 0 0 0 0 0 14 6 66 400 660 629 664 954 1433 1594 1444 1365 1666 1859 1943 1805 1504 906 660 119 51 3 77 63 70 47 3 3 19 7
0 0 0 0 0 0 0 0 0 0 0 0 0 0 0 0 0 0 0 0 2 64 378 619 749 704 994 1335 1300 809 835 523 1143 1337 809 925 586 651 204 1 11 39 45 5 0 0 0 0 3
0 0 0 0 0 0 0 0 0 0 0 0 0 0 0 0 1 0 8 10 13 207 334 573 741 859 1176 313 477 382 477 175 82 250 468 411 405 242 241 160 90 75 50 42 20 0 0 0 0
0 0 0 0 0 0 0 0 0 0 0 0 0 0 0 17 9 34 70 115 205 686 969 960 1327 1725 334 282 198 113 190 234 112 58 276 70 139 330 149 56 52 121 148 143 28 1 21 38 77
0 0 0 0 0 0 0 0 0 0 0 0 20 7 6 0 10 129 189 398 245 90 96 285 319 248 71 85 107 126 185 3 0 11 10 0 0 0 0 0 0 0 36 18 33 128 156 208 81
CIN
-300 -401 -518 -411 -120 -4 0 -34 -81 -97 -116 -101 -110 -120 -105 -134 -125 -43 -12 0 -2 -4 -9 -2 0 0 0 0 0 0 0 0 0 0 0 0 0 0 0 0 0 0 0 0 -1 0 -7 0 -3
-462 -465 -545 -314 0 -84 -34 -58 -95 -82 -77 -63 -97 -78 -142 -79 -61 -36 -17 -1 -5 -18 -16 -14 0 0 0 0 0 0 0 0 0 0 0 -1 0 0 -8 -10 -5 -15 -5 0 0 0 0 0 0
-683 -519 -240 -118 -3 -17 -61 -51 -72 -57 -58 -68 -46 -65 -61 -84 -46 -44 -21 -7 -7 -25 -39 -4 0 0 0 0 0 0 0 0 0 0 0 0 0 0 -11 0 0 0 0 0 0 -1 -3 -7 -9
-370 -342 -228 0 -63 -69 -88 -74 -81 -88 -94 -83 -100 -66 -27 -10 -22 -37 -50 -47 0 -57 -20 -4 0 0 0 0 0 0 0 0 0 0 0 0 -1 -3 0 0 0 0 0 -2 -15 -12 -12 -9 -18
-484 -390 -162 0 0 -82 -102 -110 -149 -181 -146 -137 -137 -96 -33 -15 -43 -49 -15 -32 -58 -39 -33 -11 0 0 0 0 0 0 0 0 0 0 0 -3 0 0 0 0 0 0 -1 -3 -7 -11 -8 -16 -14
0 -135 0 -54 -125 -125 -142 -150 -231 -208 -152 -137 -176 -143 -33 -48 -40 0 0 0 -17 -22 -29 -13 0 0 0 0 0 0 0 -2 -4 -1 0 0 -1 0 0 0 0 0 0 -4 -7 -10 -14 -14 -18
-283 0 -38 -104 -124 -121 -146 -189 -209 -178 -186 -215 -170 -81 -31 -53 0 0 0 0 -6 -39 -81 -53 -10 -2 0 0 0 0 0 0 0 0 -4 0 0 0 0 0 0 0 0 -2 -6 -14 -14 -15 -20
-233 -196 0 0 -142 -161 -176 -184 -196 -164 -185 -173 -187 -114 -32 -120 0 0 0 -14 -50 0 -98 -83 -65 -44 -41 -14 0 0 0 -5 0 0 -1 0 -2 -3 -1 -2 -3 -6 -3 -7 -5 -10 -12 -18 -31
-334 -164 -152 -169 -154 -199 -209 -211 -192 -205 -230 -224 -200 -118 -83 -182 -196 0 0 0 0 -75 -147 -146 -133 -121 -121 -135 -5 -8 -4 -9 -5 -8 -4 -19 -37 -23 -19 -32 -21 -19 -19 -18 -19 -18 -16 -11 -40
-286 -233 -161 0 -206 -232 -189 -228 -251 -213 -223 -256 -158 -91 -113 -160 -236 -4 0 -108 0 0 0 -1 -100 -144 -254 0 -222 -139 -29 -58 -59 -82 -121 -123 -70 -67 -29 -29 -13 -12 -15 -11 -17 -10 -17 -25 -81
-452 -33 0 -201 -204 -262 -241 -290 -280 -250 -223 -241 -227 -242 -94 -125 -239 -1 0 0 0 0 0 0 0 -242 -280 0 -117 -250 -70 -87 -92 -108 -121 -133 -130 -122 -104 -133 -110 -88 -51 -72 -81 -89 -89 -107 -101
0 0 -174 -200 -234 -259 -280 -348 -285 -264 -259 -230 -173 -152 -126 -108 -214 -185 0 0 0 0 0 0 0 -288 -337 -44 0 -320 -106 -151 -150 -129 -120 -106 -126 -119 -124 -120 -133 -127 -136 -104 -109 -124 -145 -116 -117
0 0 -195 -229 -257 -308 -312 -316 -315 -240 -208 -207 -168 -188 -214 -286 -361 -266 0 0 0 0 0 0 0 0 0 -313 -296 -315 -255 -159 -157 -155 -118 -148 -152 -144 -113 -100 -115 -120 -134 -114 -95 -101 -85 -86 -97
0 -164 -238 -274 -223 -275 -279 -330 -272 -222 -191 -178 -174 -198 -252 -256 -240 -250 -205 -148 0 0 0 0 0 0 0 -340 -309 -264 -236 -190 -187 -109 -157 -127 -147 -159 -148 -81 -96 -131 -130 -125 -114 -120 -124 -123 -130
0 -220 -195 -223 -272 -301 -332 -321 -309 -304 -239 -169 -177 -196 -205 -235 -224 -223 -173 -182 -238 0 0 0 0 0 0 -476 -382 -351 -273 -204 -142 -142 -126 -111 -135 -150 -117 -120 -108 -143 -157 -142 -215 -310 -209 -232 -206
0 0 -187 -254 -284 -328 -359 -287 -331 -326 -303 -219 -194 -178 -163 -204 -221 -231 -236 -237 -253 -241 0 0 0 0 0 0 0 -193 -286 -344 -317 -275 -215 -180 -176 -154 -173 -142 -161 -130 -150 -221 -346 -445 0 -419 0
0 0 0 -215 -285 -301 -361 -360 -357 -360 -322 -287 -237 -224 -235 -239 -256 -257 -255 -305 -319 -397 -296 0 0 0 0 0 0 0 0 -336 -295 -232 -177 -162 -145 -176 -155 -121 -138 -116 -187 -204 -257 -538 0 0 0
0 0 0 -32 -172 -301 -390 -383 -395 -394 -350 -319 -292 -252 -241 -255 -303 -312 -277 -295 -316 -439 -259 0 0 0 0 0 0 0 -352 -235 -196 -202 -230 -278 -262 -280 -287 -259 -220 -236 -119 -207 -340 -297 0 0 0
0 0 0 0 0 -256 -361 -403 -408 -427 -371 -373 -361 -339 -338 -334 -333 -359 -367 -324 -371 -329 0 0 0 0 -506 -379 -358 -417 -318 -200 -173 -303 -289 -353 -304 -334 -422 -362 -375 -312 -154 -202 -198 -280 0 0 0
0 0 0 0 0 -26 -332 -353 -373 -427 -431 -431 -395 -393 -391 -396 -393 -404 -430 -438 -509 -347 0 0 0 0 -456 -360 -293 -237 -207 -197 -220 -368 -426 -405 -313 -275 -1 0 0 -354 -210 -215 -242 -347 -339 0 0
0 0 0 0 0 0 -68 0 -393 -423 -414 -257 -407 -365 -371 -400 -430 -435 -456 -472 -514 -406 0 0 0 0 -446 -314 -209 -198 -181 -184 -262 -340 -419 -427 -359 -334 -1 0 0 0 -24 -261 -183 -275 -303 -273 -285
0 0 0 0 0 0 0 -37 0 0 0 -455 -519 -485 -430 -414 -463 -470 -480 -495 -538 -531 -551 -524 -494 -442 -383 -291 -194 -189 -140 -124 -169 -204 -298 -372 -92 -461 0 0 0 0 0 -401 -218 -176 -230 -323 -155
0 0 0 0 0 0 0 0 0 0 0 -27 -497 -531 -485 -501 -457 -503 -500 -512 -517 -493 -454 -420 -375 -329 -242 -225 -164 -141 -131 -163 -234 -223 -189 -260 -26 0 0 -121 -438 -427 -436 -352 -158 -108 -98 -117 -83
0 0 0 0 0 0 0 0 0 0 0 0 -438 -498 0 0 -320 -211 -527 -534 -543 -450 -375 -310 -289 -316 -209 -195 -167 -146 -152 -132 -124 -127 -116 -160 -321 -242 -468 -300 -75 -306 -235 -160 -130 -119 -106 -110 -89
0 0 0 0 0 0 0 0 0 0 0 0 -10 -409 0 0 0 0 -541 -551 -604 -434 -344 -335 -416 -385 -296 -226 -247 -241 -179 -156 -116 -133 -129 -150 -210 -210 -239 -267 -251 -211 -93 -117 -123 -130 -163 -156 -139
0 0 0 0 0 0 0 0 0 0 0 0 0 0 0 0 0 0 0 -560 -431 -498 -430 -360 -419 -284 -252 -194 -177 -174 -207 -133 -145 -86 -106 -139 -194 -240 -380 -344 -71 -411 -285 -280 -300 -40 -229 -222 -237
0 0 0 0 0 0 0 0 0 0 0 0 0 0 0 0 0 0 0 0 -101 -530 -466 -356 -304 -235 -324 -199 -223 -261 -244 -317 -212 -130 -196 -191 -268 -246 -292 -281 -463 -380 -318 -354 -19 0 0 -94 -247
0 0 0 0 0 0 0 0 0 0 0 0 0 0 0 0 -186 0 -619 -654 -603 -535 -489 -350 -326 -270 -262 -530 -426 -415 -379 -414 -386 -248 -205 -203 -186 -239 -291 -283 -287 -269 -284 -264 -265 -14 0 0 0
0 0 0 0 0 0 0 0 0 0 0 0 0 0 0 -428 -525 -562 -622 -596 -597 -571 -495 -427 -343 -261 -550 -499 -503 -523 -467 -364 -339 -370 -249 -280 -242 -188 -260 -271 -215 -201 -205 -200 -196 -71 -169 -141 -127
0 0 0 0 0 0 0 0 0 0 0 0 -484 -624 -745 -26 -608 -623 -655 -639 -749 -860 -824 -701 -644 -628 -678 -622 -570 -512 -437 -20 0 -538 -418 0 0 0 0 0 -8 -3 -201 -227 -170 -122 -101 -67 -108
Wind_Speed
7 5 1 2 5 6 3 3 3 2 4 5 9 9 9 11 4 6 7 10 8 8 8 10 16 17 18 18 17 17 16 18 18 16 17 16 15 16 15 15 14 15 15 14 15 14 14 12 14
5 5 2 2 7 4 2 5 8 5 10 9 13 11 9 7 5 11 9 8 7 5 5 6 15 16 17 17 16 16 15 16 16 15 15 14 14 15 13 13 13 13 14 13 13 13 13 12 13
9 3 2 4 4 3 4 2 8 12 10 4 5 7 4 5 7 5 11 9 9 6 4 10 16 15 16 16 15 15 15 15 15 15 14 12 13 13 13 12 10 12 12 12 12 11 11 9 9
2 2 2 5 3 2 5 7 10 8 6 7 10 8 5 5 3 8 12 11 10 5 4 13 16 16 15 16 15 15 14 13 13 14 13 11 12 11 11 11 10 10 10 11 11 9 8 7 5
3 2 5 3 2 3 3 6 4 10 7 8 4 5 4 5 16 14 11 10 8 5 4 5 13 15 15 15 14 14 15 14 12 12 12 12 11 9 9 8 8 7 7 7 7 6 6 6 3
2 3 5 1 3 5 4 7 15 17 16 14 12 8 5 13 14 11 8 7 7 6 5 3 11 14 13 15 14 13 12 15 12 11 11 11 10 9 8 7 6 5 3 3 4 4 4 4 2
4 4 2 2 3 3 4 1 7 8 10 8 9 6 5 10 11 11 9 8 6 5 5 4 3 11 12 12 14 13 12 13 12 9 10 9 8 8 7 5 5 2 1 3 5 6 5 5 4
5 4 3 2 3 3 7 3 4 4 7 14 10 5 7 10 14 12 8 6 4 4 4 4 4 5 5 4 11 12 11 12 10 8 8 8 6 5 5 3 1 1 3 4 6 8 10 10 9
2 5 2 4 5 4 10 5 5 6 10 6 3 12 14 18 16 12 8 4 3 2 3 3 4 4 5 6 6 7 9 9 6 6 5 5 3 2 2 3 2 3 4 5 7 10 10 11 12
4 4 7 7 6 9 9 3 6 5 10 9 16 18 19 18 15 14 10 8 2 1 1 2 2 3 5 4 5 4 5 3 2 2 2 1 1 2 3 3 3 5 5 6 5 9 11 9 3
6 6 7 7 7 14 9 8 4 13 4 6 22 20 18 17 14 13 10 8 5 1 1 2 2 1 4 1 2 2 2 2 1 3 3 3 2 2 2 2 2 2 4 2 2 4 3 5 3
6 6 11 10 11 12 6 8 9 2 4 14 14 16 16 16 14 12 11 9 6 3 3 3 4 2 1 2 1 3 2 2 3 2 2 1 1 2 2 2 2 2 2 4 3 3 4 4 5
2 5 6 15 11 11 14 9 6 8 13 14 14 15 16 15 15 13 10 8 6 6 5 5 4 1 1 3 3 3 3 3 4 4 4 2 2 2 3 2 1 1 1 1 2 3 4 4 5
3 6 12 11 13 14 12 13 4 7 14 15 15 13 12 13 14 13 13 10 10 8 7 6 6 2 1 3 4 4 3 3 4 4 4 5 3 3 3 3 3 3 3 2 3 4 4 4 4
15 16 9 6 7 8 18 2 6 15 15 15 14 12 12 12 14 14 14 12 12 11 10 9 7 4 5 6 5 4 3 3 3 4 5 6 4 3 2 3 3 4 3 4 2 4 3 4 4
9 6 7 6 7 8 4 4 8 15 15 15 14 12 12 13 16 14 14 12 11 10 12 11 9 7 7 6 5 4 4 4 4 4 4 4 5 5 4 3 1 2 0 3 2 3 4 2 1
6 7 3 6 15 6 2 4 12 16 14 13 13 13 13 10 10 11 13 13 13 13 12 11 8 7 7 6 4 5 6 5 4 4 4 7 5 7 4 3 4 3 3 2 5 7 1 3 5
5 3 1 10 16 6 6 5 17 18 17 16 14 13 13 13 16 13 13 13 12 11 10 9 9 8 7 5 4 4 5 6 4 5 4 6 5 6 4 3 2 3 2 4 8 8 1 3 4
1 4 7 13 7 6 7 7 20 20 14 15 15 15 15 17 16 14 14 14 13 11 11 12 12 11 7 3 3 4 4 3 2 4 4 5 2 4 5 4 4 4 6 8 7 4 3 2 1
4 4 11 6 9 8 6 4 16 20 22 19 19 17 17 14 13 15 15 14 15 15 15 12 13 11 10 7 3 3 3 4 4 3 4 4 4 5 5 4 4 5 3 4 6 4 3 3 3
2 5 12 8 6 6 10 3 8 10 6 9 16 16 15 17 16 16 17 17 17 16 15 15 16 14 11 9 2 1 2 2 2 2 4 4 2 5 4 4 3 2 2 4 4 4 5 4 3
5 8 12 14 15 7 4 5 8 11 15 14 14 16 17 18 16 17 18 19 18 19 18 18 14 12 9 6 7 7 5 4 3 2 2 5 4 1 2 3 4 4 3 4 4 4 5 2 5
12 4 4 10 7 7 3 4 8 11 15 20 18 19 18 18 18 18 21 20 19 17 15 14 10 7 6 7 8 6 7 5 1 1 5 6 5 5 3 2 2 2 3 5 5 6 5 4 4
5 1 8 7 5 1 10 7 5 13 28 25 17 18 21 19 20 18 18 16 15 14 11 9 7 8 9 9 9 8 7 6 4 3 2 4 4 5 6 7 4 4 5 8 8 7 6 6 4
6 6 4 4 5 6 3 3 13 20 22 25 26 23 22 19 18 19 19 18 15 11 11 11 14 15 14 14 15 14 9 6 7 6 3 4 2 1 3 3 2 2 10 9 5 6 5 5 3
5 8 8 6 4 5 5 6 9 10 19 23 22 24 18 18 18 19 19 20 11 12 15 17 14 11 9 13 13 7 6 6 6 5 2 3 3 4 6 4 5 1 4 7 5 3 4 4 5
5 2 4 9 2 3 4 8 8 7 2 10 14 13 17 18 18 19 18 11 12 14 16 17 13 14 18 11 6 7 6 6 5 6 1 2 3 4 6 4 5 6 5 7 7 4 6 5 6
7 7 4 4 3 4 5 5 8 3 3 7 9 11 14 13 11 9 9 12 11 13 14 14 13 15 10 10 8 9 9 7 6 5 7 5 5 1 3 3 3 5 7 9 9 9 7 6 6
1 2 7 7 6 7 1 8 7 2 5 10 9 10 9 10 8 9 11 11 10 8 8 10 10 10 10 8 7 9 8 8 8 5 3 6 2 3 3 5 6 6 8 12 10 6 7 8 7
2 5 8 7 4 1 4 7 3 5 3 7 6 4 4 7 10 11 11 12 11 10 7 7 7 8 6 5 8 11 11 1 3 3 4 3 4 5 6 5 7 9 8 6 8 7 6 8 8
Wind_Direction
171 150 132 67 57 58 16 347 115 160 53 27 72 87 81 36 50 124 108 116 125 100 112 107 104 100 100 99 98 98 100 100 100 101 106 111 113 112 109 111 111 108 108 111 114 113 115 115 114
167 159 58 76 76 73 360 320 83 94 136 129 80 81 53 64 52 102 114 130 120 115 119 116 105 105 104 104 104 106 105 103 103 103 106 111 112 111 111 115 119 120 116 111 108 112 111 118 117
165 220 71 75 103 143 149 192 122 144 159 121 98 36 55 93 78 105 110 115 98 80 113 122 115 112 109 106 106 107 108 109 109 108 112 111 106 108 116 111 118 121 114 115 108 109 108 100 103
179 2 22 68 79 35 156 147 125 115 82 62 117 74 73 26 84 118 126 123 107 91 100 123 122 117 112 108 106 107 109 110 110 110 111 108 107 113 117 115 109 111 112 113 111 103 97 94 105
3 38 47 74 36 55 106 169 101 107 80 82 70 96 66 66 105 115 122 121 113 93 77 93 118 119 118 110 112 112 112 104 107 111 110 108 110 112 112 105 113 108 109 106 102 94 88 83 53
43 116 50 294 113 97 42 82 97 97 102 103 91 98 69 110 112 117 102 111 108 96 81 114 127 122 119 119 117 112 115 108 103 104 99 107 108 115 114 115 112 96 90 54 37 41 28 54 20
120 71 124 314 98 86 117 138 114 118 105 79 139 91 97 123 122 121 117 113 80 31 51 52 86 124 124 122 112 107 100 96 98 99 101 103 107 109 115 119 107 112 3 359 349 337 339 337 350
100 90 87 358 206 121 159 106 154 73 67 129 142 140 139 132 131 126 104 83 58 54 69 67 65 79 61 52 98 97 99 96 95 102 97 100 104 117 125 111 94 196 291 323 329 324 324 326 325
336 71 178 146 200 165 142 138 30 75 125 43 33 117 120 134 129 126 123 91 48 70 66 34 85 71 59 44 63 61 86 92 83 81 88 64 60 36 147 154 232 262 289 307 321 316 319 315 318
92 118 216 188 152 138 128 123 112 110 112 97 104 111 131 137 141 144 157 159 160 179 59 354 25 57 52 39 37 35 26 42 61 39 12 350 295 269 268 278 247 262 275 287 308 310 307 310 299
183 193 178 153 134 125 132 99 96 121 107 151 142 144 147 147 151 159 171 176 171 183 329 269 293 348 67 330 33 5 27 332 346 261 274 259 218 256 280 274 310 316 296 299 311 313 298 301 289
157 227 155 137 150 134 111 104 130 131 154 148 147 147 150 153 162 169 172 181 178 189 245 298 297 348 20 303 352 323 349 325 302 286 286 263 201 246 259 287 271 275 269 300 329 319 303 317 297
142 180 128 133 135 111 129 132 119 95 126 142 147 154 162 165 167 179 181 177 174 191 215 244 263 312 311 304 313 292 320 319 317 323 326 294 303 306 310 303 265 261 300 268 312 306 304 303 302
47 102 119 122 131 133 120 129 97 149 141 148 160 167 169 172 173 173 185 186 188 191 206 221 241 197 145 271 278 288 298 321 315 310 296 299 258 255 314 309 318 334 330 341 360 312 287 286 287
107 106 60 117 144 113 123 111 147 158 160 162 172 176 177 184 177 186 186 188 187 193 196 211 219 195 192 229 247 262 281 305 272 281 284 280 266 296 291 309 320 312 303 27 323 272 340 335 324
88 22 117 237 169 160 84 225 161 167 167 175 180 187 187 190 190 185 188 188 185 189 194 207 215 207 206 220 235 252 265 252 260 275 277 285 245 206 234 251 250 306 11 179 254 256 219 274 308
357 164 161 190 209 155 204 172 174 175 175 182 189 191 197 192 194 193 187 185 183 187 191 203 207 213 205 227 244 255 263 273 272 257 250 239 198 194 186 228 241 149 128 72 319 299 85 341 307
148 126 267 198 200 170 170 206 161 181 184 189 193 193 198 198 201 191 188 185 184 188 187 196 198 209 198 197 228 252 249 254 238 247 230 235 180 190 147 211 203 90 162 147 241 272 360 235 268
297 180 184 212 225 151 184 167 174 183 192 189 197 194 199 201 204 189 190 185 182 187 184 191 189 202 178 172 189 237 242 248 240 272 242 238 206 209 181 194 180 159 188 201 225 257 265 294 170
241 294 280 277 182 123 148 221 181 186 195 193 195 198 201 203 201 197 190 186 190 189 197 194 203 200 199 203 191 185 209 252 239 253 276 226 204 231 238 232 240 193 208 237 232 234 332 288 211
264 210 268 200 133 56 113 11 198 217 226 202 205 204 202 201 199 204 198 191 193 195 197 200 204 204 202 197 141 257 357 314 299 276 295 291 257 250 257 281 276 294 264 246 240 231 224 276 310
283 209 241 152 151 181 141 235 217 206 218 220 205 201 203 203 200 201 203 202 199 199 197 198 200 203 207 187 201 197 207 230 254 308 296 310 311 261 236 266 269 280 249 273 263 228 230 212 272
231 316 188 159 119 98 237 97 276 164 218 222 209 204 205 204 198 201 204 204 204 198 198 200 191 192 202 194 216 225 246 250 275 292 306 304 307 299 257 206 266 316 317 286 272 277 239 224 255
241 274 58 49 90 110 210 158 252 184 215 223 213 207 206 201 202 203 205 203 208 202 192 175 170 191 181 189 210 217 226 249 289 274 283 289 302 315 341 326 314 332 297 275 268 257 254 261 251
94 60 6 17 12 217 173 107 240 215 213 210 203 206 206 200 198 202 202 202 199 178 172 174 187 188 184 177 190 189 210 206 248 264 262 253 240 203 173 169 100 354 289 267 260 265 275 279 270
179 156 150 174 192 258 181 234 259 215 222 214 203 204 197 198 201 201 201 206 161 169 176 189 189 183 192 201 194 187 163 185 227 252 254 273 221 220 213 249 101 125 317 290 279 281 262 257 263
204 136 176 104 30 51 280 293 319 340 93 183 195 192 200 201 201 202 201 174 160 173 183 189 185 186 196 196 149 131 166 148 142 271 57 208 219 255 314 327 348 336 286 272 273 274 281 257 260
160 162 83 7 139 274 294 298 242 333 126 149 163 196 209 207 198 196 147 158 159 168 180 184 181 194 180 157 158 164 164 179 158 182 220 251 269 264 48 323 276 286 286 291 290 275 268 269 268
71 119 51 112 115 162 219 268 218 224 224 167 178 207 201 193 165 155 159 144 137 127 143 170 169 158 150 175 152 173 182 210 207 185 209 127 215 273 299 288 272 255 271 279 276 266 271 266 267
153 196 142 127 223 129 157 272 325 118 182 152 122 125 120 156 155 144 125 116 119 115 113 113 111 124 144 170 170 190 199 147 45 23 307 289 236 215 226 245 258 258 256 264 264 271 275 269 281